RH
48 45 50 50 49 47 66 55 68 46 41 34 36 47 55 60 61 63 60 57 52 54 55 56 54 51 41 40 41 32 30 33 40 43 40 39 35 29 27 30 35 36 31 28
83 54 53 60 54 54 54 51 52 51 53 50 56 55 56 56 62 65 65 66 63 65 67 58 54 52 52 53 56 50 41 54 64 48 40 25 27 20 16 14 13 12 13 14
58 62 67 70 50 46 47 46 52 61 57 65 60 56 54 54 57 64 57 51 53 68 78 68 59 57 58 58 55 44 55 60 58 37 25 24 25 22 20 20 20 19 18 18
69 70 63 40 40 42 45 66 61 63 60 57 57 54 46 50 56 54 42 36 37 38 43 54 64 57 54 54 46 52 57 62 53 37 25 21 21 19 20 24 23 20 18 18
68 62 40 36 53 54 56 64 59 61 51 45 40 38 34 35 35 37 41 42 40 44 60 60 62 64 65 48 50 53 39 42 38 28 18 16 15 14 15 18 16 17 17 16
75 75 50 54 41 45 51 59 54 47 40 36 36 38 29 32 45 48 48 49 52 52 53 63 65 68 64 54 50 41 38 30 29 29 27 24 20 17 16 17 16 15 13 14
68 66 45 47 40 45 56 45 40 37 37 40 40 39 42 51 58 58 60 64 66 67 67 65 70 71 54 43 36 39 35 35 34 32 32 29 28 26 25 30 44 38 36 17
64 78 67 43 41 44 37 38 39 42 47 49 51 57 62 66 72 76 74 75 74 77 77 78 71 40 39 39 35 39 38 35 28 29 31 29 32 26 30 32 50 53 58 53
49 39 51 50 41 45 42 42 44 52 48 53 62 63 67 70 72 63 64 61 49 61 49 46 46 47 48 42 46 46 42 31 26 32 29 30 34 32 44 58 57 54 53 52
41 21 28 39 41 34 40 42 48 50 53 54 56 63 66 62 56 53 57 56 56 57 56 53 46 36 31 25 23 26 33 31 34 44 29 34 53 61 63 60 56 53 53 55
34 35 32 28 36 38 44 50 52 52 54 60 70 70 62 48 41 39 44 46 49 55 48 30 36 42 42 35 39 45 54 49 46 40 45 46 43 54 51 44 55 54 49 61
20 19 26 30 37 44 51 51 47 56 62 58 50 50 46 43 40 43 45 44 48 52 58 57 57 53 48 40 46 58 62 53 56 59 61 54 61 52 34 37 34 38 40 48
28 33 40 47 49 42 52 50 50 40 42 47 45 44 45 46 45 44 46 49 47 48 55 58 55 56 43 31 58 58 65 67 68 65 73 76 75 76 78 40 48 42 44 49
35 48 51 44 48 49 43 44 61 49 38 45 46 46 47 51 48 47 48 50 54 57 56 58 56 54 51 67 72 66 66 61 67 77 83 78 81 82 86 86 75 53 46 68
24 34 35 34 40 30 29 32 39 42 39 38 38 45 49 51 51 52 52 51 53 53 51 45 52 48 62 72 67 71 70 63 69 78 74 81 89 90 89 91 90 90 94 85
26 25 26 32 32 33 32 38 42 40 40 42 46 48 50 52 54 56 56 53 64 67 51 51 61 51 57 58 62 68 70 64 70 79 83 92 92 95 96 98 99 100 98 93
29 36 34 33 35 35 39 40 44 45 46 49 50 53 57 62 64 66 64 66 70 70 70 72 69 60 61 65 76 80 77 78 79 92 93 92 95 96 97 99 100 100 95 91
38 36 31 34 39 42 40 41 43 46 52 56 60 66 70 73 74 75 76 78 80 81 78 74 74 72 75 78 83 90 91 94 94 98 97 100 100 100 100 98 97 98 94 94
39 33 32 35 36 41 46 49 54 62 66 70 74 77 79 81 82 83 85 89 92 91 82 82 84 86 87 86 87 91 94 100 100 99 99 100 98 96 96 96 96 97 97 96
32 33 35 35 38 46 57 62 68 72 77 80 82 85 91 92 92 94 95 97 95 88 94 95 94 98 96 96 96 99 97 94 95 98 99 98 96 96 97 97 98 98 98 98
35 36 38 44 54 62 68 72 74 78 80 82 90 96 97 96 96 97 98 99 86 91 99 98 96 96 97 97 96 93 96 98 97 97 98 98 98 97 96 95 95 94 94 93
39 45 53 62 70 72 73 76 80 84 89 95 96 94 96 97 97 99 87 92 92 95 98 97 97 97 100 96 98 96 95 96 97 96 96 95 95 96 98 97 96 96 97 97
47 57 68 74 77 79 82 80 83 91 99 97 92 96 95 97 96 100 96 89 96 95 99 100 100 96 93 96 96 97 96 96 96 95 95 95 96 96 96 96 96 96 96 96
62 70 77 81 84 86 91 92 96 99 92 84 92 93 96 95 89 86 99 100 99 98 97 96 97 95 96 96 96 96 96 95 95 96 96 96 96 96 96 96 96 96 96 96
72 81 88 91 94 97 97 97 96 94 97 99 96 93 93 95 98 96 96 98 100 100 99 99 98 96 96 96 96 96 95 95 95 95 95 95 96 96 96 96 96 96 96 96
87 93 96 97 99 97 98 99 98 100 98 97 90 92 91 98 98 98 100 100 98 98 98 97 96 96 96 96 96 95 96 95 95 95 96 96 96 96 96 96 96 96 96 96
99 100 97 97 95 96 100 100 96 99 99 100 98 94 99 99 99 99 98 98 99 99 97 96 96 96 96 96 96 96 96 95 96 96 96 96 96 96 96 96 96 96 96 96
Wind_Speed
14 13 10 15 15 16 16 18 15 23 21 19 18 14 9 7 8 8 4 3 4 7 10 13 14 19 22 23 26 29 31 32 32 31 30 29 28 27 28 29 30 30 30 29
4 12 14 19 17 20 21 22 24 26 25 9 5 5 7 12 12 11 10 12 17 17 18 18 18 19 22 24 24 29 33 30 26 29 29 28 28 26 28 28 28 28 29 29
6 2 6 10 15 14 13 12 10 13 5 4 5 9 13 16 14 13 16 21 22 23 26 25 27 26 29 27 29 35 30 28 26 26 27 27 27 27 28 28 28 28 29 30
5 3 6 4 3 3 4 4 2 1 3 6 9 14 17 15 14 20 26 27 29 29 31 30 26 28 30 31 34 30 27 23 24 26 27 28 29 29 29 27 28 29 30 31
4 6 13 15 3 2 1 4 4 2 6 12 19 25 19 9 16 25 28 31 34 33 28 28 27 27 28 32 27 25 29 27 27 26 27 27 28 27 27 27 28 28 29 29
3 5 6 5 4 4 4 8 4 8 14 19 22 15 16 26 30 30 31 31 32 33 34 30 29 26 24 25 24 26 26 26 28 28 28 29 29 30 31 30 31 31 31 30
12 8 8 4 4 4 8 4 11 13 16 19 16 22 33 31 31 30 32 32 32 33 31 32 30 25 25 24 26 26 28 30 31 32 32 32 33 34 32 31 28 30 30 32
6 6 11 4 1 2 7 13 15 16 15 18 22 26 27 28 28 28 30 28 27 27 26 27 21 24 25 28 30 30 32 33 34 35 35 35 35 37 35 32 28 27 26 28
6 3 1 2 8 9 11 13 14 13 14 13 16 18 20 22 23 23 23 23 25 22 27 25 25 27 30 34 32 34 34 34 35 34 35 36 36 36 33 25 24 24 24 26
4 3 11 12 19 15 14 22 19 17 18 18 20 22 24 26 27 29 29 30 29 28 28 28 27 29 31 34 36 35 35 33 33 32 36 34 30 28 26 26 24 24 24 26
8 14 18 19 12 19 22 22 23 23 23 23 22 26 26 29 31 34 34 35 34 31 29 33 33 34 35 35 32 33 31 33 33 35 34 35 34 32 31 33 27 28 32 31
7 14 17 24 21 21 23 23 24 23 23 24 24 27 31 36 36 36 36 36 37 35 32 33 32 33 35 36 32 29 29 33 31 31 33 36 36 39 39 39 37 37 38 37
15 13 17 23 26 27 22 24 26 20 21 25 29 32 34 36 37 37 37 37 37 35 34 32 35 35 40 42 34 32 31 30 32 35 33 34 35 34 34 41 37 38 38 38
18 17 19 18 19 22 22 24 23 25 31 33 33 34 37 37 37 37 36 37 36 35 36 36 37 39 40 32 29 32 31 33 34 34 33 35 35 34 32 32 36 41 40 38
16 16 22 26 26 24 22 24 26 29 33 35 35 34 35 36 37 37 39 39 38 37 37 39 40 43 36 32 34 33 32 34 33 31 34 34 33 33 32 32 34 35 36 39
17 21 24 25 28 29 31 31 29 34 34 35 33 34 34 37 38 39 39 39 35 33 39 40 40 43 39 36 35 34 32 35 33 34 34 32 32 31 31 32 33 34 35 37
18 22 25 27 28 32 33 35 35 36 38 36 36 37 37 38 38 38 38 35 33 37 39 38 40 41 38 34 32 32 33 35 34 32 32 33 32 33 33 33 35 36 38 36
24 31 32 31 33 34 37 36 37 37 37 38 38 36 36 36 37 37 37 36 37 38 39 40 38 37 35 33 33 32 32 33 33 33 33 33 34 34 34 36 37 38 38 35
32 33 32 31 32 34 36 38 37 35 35 35 35 36 36 36 37 37 36 35 36 37 39 36 36 34 33 32 30 30 32 32 34 34 34 33 34 36 36 35 35 36 35 35
33 30 29 33 36 37 38 37 35 34 34 34 35 35 36 36 36 35 35 35 36 36 35 34 32 32 31 30 30 31 33 34 34 35 36 36 37 39 39 39 38 35 30 27
30 32 36 39 39 37 35 34 34 34 35 34 34 35 37 38 36 34 34 34 33 31 29 28 28 29 29 30 30 30 34 35 36 37 38 34 27 25 28 33 35 37 36 32
35 38 39 37 35 35 35 33 33 34 34 34 34 34 34 34 32 30 30 32 31 27 27 28 27 27 27 28 30 32 34 33 30 29 32 33 27 21 19 20 19 17 16 16
39 39 36 34 33 34 34 34 32 32 34 30 34 30 29 31 30 28 29 25 24 24 24 23 24 26 27 27 29 30 29 29 25 19 17 17 15 14 12 11 10 9 8 6
38 36 34 35 34 33 32 31 31 25 32 28 25 26 24 25 25 23 24 24 23 22 23 23 23 21 23 26 26 23 20 18 15 14 13 11 11 10 9 9 8 7 6 7
36 35 34 31 30 30 30 24 32 28 24 23 24 24 22 22 22 23 24 22 21 20 21 21 20 23 22 17 17 17 16 16 15 14 13 12 11 11 12 13 14 14 15 17
35 33 30 29 29 24 30 28 25 23 23 23 25 26 22 21 20 19 19 18 18 18 18 20 20 16 13 14 16 17 18 20 19 19 19 20 20 21 22 22 23 24 25 25
29 26 26 23 28 26 23 22 23 23 22 22 25 22 21 19 17 16 16 16 16 16 17 15 11 13 14 15 17 19 20 21 21 22 23 24 25 25 26 26 27 26 26 26
Wind_Direction
251 262 248 255 256 241 224 233 250 273 275 290 310 327 335 330 332 333 331 308 269 291 296 297 298 304 307 310 313 315 312 311 309 310 309 306 303 301 300 302 305 306 307 308
270 266 274 279 269 256 255 258 260 270 281 8 38 4 355 355 345 337 330 312 288 288 299 289 287 293 301 305 306 309 308 305 304 308 308 305 300 299 301 303 304 307 310 311
276 57 315 272 257 259 244 245 254 266 328 2 354 352 344 326 318 313 318 313 307 296 293 290 291 292 294 300 302 304 299 298 299 302 301 300 299 300 301 303 304 306 308 310
291 298 254 82 346 278 240 27 352 167 33 352 326 313 309 302 297 304 307 307 303 296 291 286 286 293 298 300 303 299 298 297 299 301 297 297 298 301 301 301 301 303 304 306
253 243 297 276 64 62 234 159 88 30 339 326 321 314 302 305 309 302 299 300 298 293 287 289 291 293 294 297 295 295 299 299 299 296 298 299 300 304 304 303 304 305 305 307
188 250 269 80 29 344 234 256 84 342 323 321 324 309 304 317 312 306 300 301 301 294 290 289 295 294 287 289 290 291 294 297 297 296 297 298 299 298 299 298 298 300 302 303
227 248 267 96 333 318 255 340 323 318 311 309 300 292 298 303 303 300 299 299 297 294 291 288 289 288 286 291 292 296 300 299 297 296 298 298 297 297 295 294 292 292 293 298
224 249 266 77 145 287 338 312 306 303 305 306 306 305 305 308 307 306 304 304 308 307 297 292 288 289 294 297 300 302 300 296 294 294 296 297 297 298 294 292 288 288 290 293
226 247 49 268 291 294 292 293 300 290 299 311 308 310 309 307 307 307 303 305 312 306 311 310 300 295 295 299 298 300 298 295 293 293 293 295 295 294 291 285 281 284 287 290
313 258 289 296 300 303 296 302 298 287 291 295 301 305 306 304 306 305 303 301 302 301 300 301 301 301 301 304 304 299 295 295 291 288 291 291 288 283 282 283 282 281 285 288
263 283 294 286 285 299 295 293 290 287 285 287 294 298 300 301 300 299 298 297 297 292 290 295 300 302 304 304 300 294 291 291 290 289 288 288 289 285 283 285 276 279 287 291
277 295 282 284 289 293 289 289 292 285 290 288 294 294 296 294 294 296 296 297 297 295 289 291 295 294 297 301 298 292 287 291 290 288 287 288 286 290 292 289 288 287 289 293
264 282 286 287 292 298 289 292 290 282 288 292 295 295 294 293 291 293 292 292 295 296 293 293 293 295 300 301 298 299 292 287 289 291 286 284 284 284 284 293 290 290 293 295
282 292 291 290 286 295 293 295 288 280 292 296 295 296 295 293 292 291 291 294 297 297 295 296 298 298 300 296 292 297 292 293 293 290 286 287 284 283 281 281 288 294 294 296
299 302 296 298 295 284 293 303 302 294 293 292 297 297 296 294 293 293 295 297 298 299 300 303 302 303 304 299 299 296 291 294 294 290 293 290 286 286 283 283 285 288 292 297
307 309 307 298 303 290 290 297 295 294 293 292 295 298 298 299 296 295 297 298 295 293 298 300 300 303 308 306 303 298 294 295 296 294 293 289 286 281 281 280 280 282 284 287
317 311 310 302 297 292 289 289 294 294 296 296 296 299 298 296 294 293 295 297 294 295 297 296 298 304 306 305 300 297 297 297 297 293 290 290 286 283 283 282 281 282 284 289
314 315 310 306 301 300 300 300 303 302 298 300 299 298 297 297 295 295 296 298 296 295 298 301 304 306 306 304 304 300 299 298 297 294 293 290 287 285 284 285 284 284 287 289
310 307 309 309 307 307 305 305 304 302 301 301 300 298 298 297 296 296 298 295 294 294 302 307 307 306 303 302 302 301 300 298 297 296 294 291 287 289 289 286 286 288 288 288
310 311 313 309 309 311 309 308 305 302 303 302 301 299 299 299 300 298 297 292 295 302 308 308 310 308 307 306 304 303 303 303 303 300 297 292 290 291 289 285 283 280 276 274
316 320 315 313 314 313 309 307 304 302 304 304 302 301 302 307 310 308 301 298 310 317 312 309 310 310 311 310 310 310 308 305 300 298 296 292 289 287 288 287 287 286 285 287
319 316 314 313 307 304 307 306 304 304 305 307 314 316 313 310 312 311 314 310 320 321 319 318 318 318 315 315 310 307 308 311 304 296 297 300 304 305 303 302 302 301 299 298
317 316 312 306 304 305 307 311 311 309 312 314 314 314 315 314 316 315 312 330 326 326 324 320 320 319 317 315 312 311 311 310 315 322 324 325 327 328 329 330 326 328 332 337
315 314 309 310 312 313 307 309 305 309 314 316 315 319 321 325 319 324 325 323 324 327 323 322 324 326 318 318 323 330 337 343 349 350 354 0 7 11 14 20 28 36 50 64
316 314 310 309 307 306 308 312 317 319 320 316 317 319 320 323 322 323 322 325 328 330 329 330 330 329 334 345 355 2 11 19 18 23 30 36 39 46 54 64 67 75 84 90
310 310 309 310 306 307 318 318 319 320 319 318 318 321 323 324 323 321 326 331 332 333 335 335 340 354 12 21 27 35 41 48 49 56 60 66 70 73 77 81 84 85 88 90
312 313 316 316 309 317 315 319 316 318 319 315 316 326 324 328 332 332 336 339 338 339 341 353 24 36 42 47 51 55 57 61 65 68 72 75 77 79 81 83 85 86 89 92